Location: Arborea
(39.7744°N, 8.5819°E)
Time: 03:59:55
(UTC+00:00)

Cosmos 2333 Rocket - Pass Details

Date: 24 October 2021
Orbit: 837 x 864 km, 70.8° (Epoch: 29 November)

Event Time Altitude Azimuth Distance (km) Brightness Sun altitude
Rises 20:03:41 0° 241° (WSW) 3,389 5.8 -40.6°
Reaches altitude 10° 20:06:40 10° 256° (WSW) 2,462 5.1 -41.1°
Enters shadow 20:09:41 21° 288° (WNW) 1,839 4.4 -41.7°
